Location: Kellogg
(38.0159°N, 90.0546°W)
Time: 02:38:29
(UTC+00:00)

ARIANE 6 FM1 Upper Stage - Pass Details

Date: 23 January 2026
Orbit: 522 x 609 km, 62.0° (Epoch: 7 February)

Event Time Altitude Azimuth Distance (km) Brightness Sun altitude
Rises 01:32:53 0° 249° (WSW) 2,711 7.3 -27.5°
Reaches altitude 10° 01:35:34 10° 266° (W) 1,805 6.2 -28.1°
Maximum altitude 01:38:37 20° 315° (NW) 1,267 4.8 -28.7°
Enters shadow 01:38:54 20° 321° (NW) 1,272 4.8 -28.7°
